Back to catalog

STARLINK-33809

AliveCommunicationsVLEO
NORAD 63508·PAYLOAD·🇺🇸 United States

Launched Apr 7, 2025 from Vandenberg Space Force Base

Loading…

Next Passes (next 24 hours)

TLE

FreshSource: CelesTrak SupGP

Epoch: Sep 15, 2026, 03:36 UTC

1 63508C 25071R   26258.15048611  .00060273  00000+0  17802-2 0  2581
2 63508  53.1577 338.4742 0001250  95.8674  17.7861 15.34371008    13

Track STARLINK-33809 in real time with AllMySat

Download on the App Store